Dewpoint
54 54 54 51 52 52 56 55 55 55 52 51 51 51 50 49 48 47 49 49 49 49 48 47 48 48 47 48 47 47 46 47 47 47 47 46 47 47 47 45 44 44 47 45 44 43 43 42 42 42 44 41 42 43 42 43 45 46 45 44 43 45 43 42 38 38 42 43 46 39 39 39 31 34 34 38 41 40 39 40 41 40 39 40 40
53 53 52 51 52 54 55 55 54 53 52 51 51 51 50 50 49 50 48 49 49 49 49 48 49 47 47 47 47 47 47 46 47 46 47 47 47 47 47 46 45 45 45 44 44 43 44 42 41 43 43 40 42 39 39 39 39 40 41 41 41 42 45 40 41 37 33 42 38 35 33 38 31 32 36 39 40 41 35 36 36 36 37 38 37
52 52 50 50 52 54 55 55 54 53 52 51 51 50 50 50 50 49 50 49 50 50 49 48 49 48 48 48 48 48 48 48 48 47 47 46 46 47 48 46 45 45 45 44 44 44 42 43 42 43 45 42 43 43 43 39 39 38 41 40 40 41 40 38 38 34 31 32 41 31 35 35 36 30 32 35 39 36 34 35 35 35 36 37 36
51 50 50 49 50 52 53 54 53 53 51 51 51 51 52 51 51 50 49 50 50 50 49 49 49 49 48 48 48 48 48 48 48 47 46 46 46 46 46 46 45 45 44 44 43 44 43 43 43 44 44 42 43 43 43 42 41 40 41 41 41 39 41 39 36 37 37 29 32 30 32 36 33 31 32 32 35 35 35 34 35 35 35 34 34
51 50 48 48 48 50 51 52 53 53 53 52 52 53 53 52 52 50 51 51 52 52 51 50 50 50 50 50 50 50 50 49 49 49 48 47 47 47 46 46 46 45 45 44 45 45 44 43 43 44 43 41 43 42 42 41 38 39 39 39 39 41 41 38 36 33 32 32 35 39 36 32 31 34 32 31 32 33 34 34 33 34 35 35 34
51 51 50 49 50 51 52 53 53 53 53 53 53 54 54 53 52 53 52 52 53 53 52 53 52 52 52 52 52 52 51 51 50 49 48 47 47 47 47 46 46 46 46 45 44 45 45 43 43 44 42 41 41 43 42 41 38 38 37 37 37 38 38 37 37 36 32 32 34 35 37 33 33 34 32 34 35 33 32 32 33 35 36 37 35
52 51 51 50 51 52 53 53 53 53 53 53 53 54 54 53 53 53 53 53 53 53 54 53 53 53 53 54 54 53 53 51 51 50 49 48 47 47 47 47 47 46 45 45 45 45 44 44 43 44 43 41 41 42 42 40 39 38 39 39 35 36 35 34 33 34 34 33 34 36 35 37 36 33 30 33 33 34 35 34 33 32 37 36 35
50 50 50 50 51 52 52 53 53 54 54 53 53 54 54 53 53 53 54 54 54 53 53 54 54 54 54 54 54 54 53 52 52 51 50 50 49 48 47 47 47 47 46 46 46 45 45 44 43 43 43 42 42 43 42 39 40 38 38 37 36 36 35 36 36 34 34 35 34 33 35 35 35 35 34 32 32 33 34 35 34 34 36 36 36
50 50 50 50 50 52 52 53 54 54 54 54 54 54 53 53 53 53 53 53 54 54 55 55 54 54 54 54 54 53 53 52 52 52 52 51 50 49 48 48 48 47 47 46 46 45 45 45 43 43 46 45 43 43 42 41 38 36 37 37 36 37 36 36 36 35 34 35 36 35 34 33 34 35 33 34 33 33 36 36 35 35 35 34 32
49 49 50 50 52 52 53 53 53 54 53 53 53 53 53 53 54 53 53 54 53 53 53 54 54 54 53 53 54 54 52 51 50 48 48 51 51 50 50 50 49 48 48 47 47 46 45 45 46 46 45 45 43 41 40 40 40 36 33 36 36 34 35 35 35 36 37 35 34 36 32 33 33 35 35 36 36 37 36 36 35 34 34 33 34
47 47 48 49 50 52 53 53 53 53 53 53 53 53 53 53 54 53 53 52 52 53 53 53 53 53 52 52 52 52 51 51 45 43 44 44 49 50 50 50 49 49 49 48 48 47 47 45 45 46 46 46 45 41 39 38 37 36 36 36 37 35 34 35 35 36 38 37 36 35 34 33 34 35 35 34 37 36 36 36 35 34 32 30 28
45 47 48 48 48 50 50 51 51 52 52 52 52 52 53 53 53 53 52 52 52 53 53 53 53 53 52 52 51 50 50 46 40 39 40 41 44 49 50 50 50 49 49 48 48 48 47 47 46 45 46 46 45 43 40 38 36 36 35 35 36 36 37 38 37 34 36 35 34 34 35 34 36 36 36 37 36 36 36 35 34 32 32 30 30
40 44 45 46 47 48 49 49 49 50 51 52 52 48 51 52 52 52 52 52 52 52 52 52 52 52 52 51 50 50 49 41 38 38 38 39 39 42 46 48 49 49 49 49 48 48 47 46 45 45 43 47 47 42 40 38 36 36 36 37 37 36 34 36 37 38 36 35 35 35 34 35 37 36 37 37 38 33 34 31 33 33 32 31 30
36 37 39 41 42 44 47 48 49 50 51 51 51 50 51 52 51 52 51 51 52 51 51 51 51 51 51 50 49 45 43 40 38 39 40 40 40 40 44 46 47 47 48 48 48 48 47 45 44 42 42 44 41 38 36 35 35 35 36 36 37 39 38 36 35 36 37 38 36 37 37 37 37 37 39 38 35 31 32 31 32 32 32 31 33
36 36 36 38 40 42 44 46 48 48 47 48 50 50 49 48 49 50 50 50 50 50 50 50 49 49 49 48 46 43 42 39 38 39 39 40 40 41 44 43 43 43 43 44 44 45 44 44 43 42 40 40 39 37 36 34 34 34 34 35 37 39 40 40 38 38 37 36 36 36 36 38 38 39 39 39 36 35 35 33 34 34 35 35 33
36 36 36 36 37 40 41 42 45 45 43 44 47 48 47 48 48 46 47 47 48 48 47 48 48 47 46 44 43 41 41 37 37 38 38 39 40 43 42 42 42 42 42 42 42 43 44 43 42 42 40 41 38 36 37 37 35 33 35 37 38 37 37 38 38 38 39 38 37 37 37 39 39 40 39 37 37 37 37 36 34 33 31 30 29
37 37 37 37 38 38 40 39 40 41 41 42 44 45 44 44 44 44 45 45 46 47 47 46 47 46 43 42 42 41 38 38 37 38 38 38 40 41 41 40 40 39 38 39 40 42 44 43 42 41 40 40 38 36 36 37 36 36 38 38 37 36 36 37 36 36 36 36 35 35 35 34 34 34 35 35 36 36 35 32 31 31 30 29 29
37 38 38 38 37 37 40 40 39 39 39 41 41 40 40 40 40 42 43 43 44 44 43 43 41 42 42 40 39 39 37 38 37 37 38 39 40 40 39 39 38 37 36 36 37 38 41 43 41 38 37 38 36 36 36 38 38 38 38 36 35 34 34 36 36 36 36 35 34 34 33 33 34 35 35 35 36 36 34 30 31 30 30 30 29
38 37 38 37 36 36 38 40 40 39 38 39 39 38 39 39 39 40 41 42 42 42 43 42 39 38 37 38 42 37 37 38 37 37 37 38 39 39 38 37 36 35 35 34 34 34 34 37 39 37 37 37 35 35 35 37 38 38 37 35 33 32 33 35 35 34 35 34 34 36 35 34 35 35 36 35 35 36 36 34 33 31 30 30 30
38 39 39 38 37 37 38 40 40 40 39 39 39 39 40 40 39 40 41 43 42 42 42 41 38 36 36 36 38 37 36 37 38 37 37 37 37 38 37 37 36 35 35 33 33 32 33 33 36 33 33 33 33 33 33 33 36 36 36 34 33 32 34 35 35 33 34 34 34 34 34 34 33 33 33 34 35 36 36 35 34 33 32 30 31
37 38 39 38 38 37 36 39 40 41 40 40 40 41 41 40 40 41 41 42 42 41 40 38 35 34 33 33 35 36 37 36 38 36 37 36 36 36 35 36 36 36 34 33 32 32 31 32 34 34 33 33 33 33 34 34 34 35 34 33 34 34 34 33 35 35 34 34 34 34 34 33 32 32 32 32 33 34 35 35 35 34 33 32 30
35 35 36 37 38 38 38 40 41 42 42 41 40 40 41 40 40 41 41 42 41 39 38 36 34 33 32 33 34 35 39 38 37 36 36 36 35 36 36 36 36 34 33 32 31 31 31 32 33 33 33 33 33 33 33 33 33 34 34 33 33 33 36 35 34 33 33 32 32 32 32 31 31 31 32 32 32 33 34 33 34 34 34 33 32
35 35 36 36 36 37 38 39 41 41 42 39 40 39 39 40 40 40 41 41 40 39 37 36 34 32 31 31 31 32 33 37 37 36 35 35 35 35 35 36 35 37 33 32 31 32 33 33 36 34 33 33 33 33 33 33 34 34 33 33 33 33 34 34 34 32 32 32 32 31 31 31 30 30 31 31 31 33 32 33 33 33 33 34 34
35 35 36 36 35 35 36 39 39 38 37 36 37 36 39 40 40 40 41 40 40 38 37 36 35 34 31 30 30 30 31 32 35 35 36 35 35 35 35 35 35 36 34 32 33 33 33 34 34 34 34 34 33 33 33 33 33 33 33 33 33 34 34 32 32 32 31 31 31 31 30 30 30 30 30 31 31 32 32 32 33 33 33 33 33
35 35 35 35 35 35 36 37 38 37 38 37 35 36 38 39 39 39 40 39 39 38 38 37 37 35 32 30 29 29 30 31 33 35 35 35 35 35 35 34 34 33 34 35 34 35 34 34 34 33 33 33 33 33 33 33 32 32 33 33 34 32 32 32 32 32 31 31 30 30 30 30 30 31 32 32 32 32 32 32 32 32 32 33 34
35 35 35 35 35 35 36 38 39 38 37 37 36 36 36 38 39 39 39 39 39 38 37 37 36 36 34 32 28 29 29 30 32 34 35 35 34 34 34 34 34 34 35 34 34 34 33 33 33 32 32 33 33 33 32 33 32 32 32 32 31 31 31 31 32 31 31 30 30 30 30 30 30 31 32 32 31 31 31 30 30 30 31 31 31
35 35 34 34 36 35 35 34 37 37 37 37 37 36 36 36 37 40 40 40 38 38 37 36 36 35 34 31 28 28 28 29 30 31 32 33 34 34 34 34 34 34 35 35 34 34 33 33 32 32 32 32 31 31 32 32 31 31 30 30 31 31 32 32 32 32 31 31 30 30 30 30 30 30 30 30 30 30 30 30 30 30 30 30 30
34 34 34 34 35 35 35 33 34 35 37 36 37 36 35 35 36 38 39 39 37 36 36 36 36 35 35 31 27 27 26 28 30 30 31 32 32 32 32 32 31 31 31 32 33 33 32 31 30 30 30 30 30 29 30 30 30 30 30 30 30 30 32 32 32 32 31 30 30 30 30 30 30 30 30 30 30 30 30 30 30 30 30 30 30
34 34 34 34 34 34 35 36 37 36 34 32 32 35 38 36 37 37 37 38 38 37 36 36 36 36 35 31 27 26 26 26 28 31 31 32 31 31 30 30 30 32 33 32 31 30 30 29 28 28 27 26 27 29 28 29 28 29 30 31 31 31 31 31 31 31 31 30 30 29 29 29 29 30 30 30 30 30 30 30 30 30 30 31 30
34 34 35 34 34 34 33 34 35 34 34 33 33 33 32 34 34 35 35 36 37 36 36 37 37 35 34 32 30 29 27 26 30 31 32 32 32 31 31 31 32 32 32 31 30 27 27 26 25 26 26 27 27 27 26 27 27 28 28 29 29 30 30 30 30 30 30 29 29 29 30 30 29 29 29 29 30 30 30 31 30 30 30 30 30
35 35 35 35 35 34 34 33 33 32 32 33 33 33 33 33 33 34 34 35 35 36 35 34 35 34 34 32 32 31 31 31 31 32 33 32 32 32 32 32 32 32 31 29 27 27 27 26 25 25 25 27 26 26 25 25 26 26 27 27 28 29 28 29 29 28 28 28 29 29 30 30 30 30 30 30 30 30 30 31 30 31 30 29 30
33 33 34 34 35 34 34 35 34 32 32 33 33 33 33 33 33 33 34 34 34 35 35 34 34 34 34 33 32 32 32 31 32 33 33 33 32 32 32 32 32 31 31 30 28 27 27 26 25 25 25 27 25 24 26 27 26 27 27 27 27 27 28 28 29 29 28 28 28 29 29 30 30 30 30 30 30 30 30 30 30 30 30 30 30
33 33 33 33 34 34 34 34 34 35 33 32 32 33 34 34 34 31 32 33 33 34 33 34 34 34 33 32 32 32 32 32 33 33 33 32 32 32 32 32 32 31 30 29 28 26 25 26 27 27 27 27 26 27 28 29 29 28 28 27 27 28 29 30 28 29 28 29 29 29 29 29 30 30 30 30 30 29 30 30 30 30 31 30 30
32 32 33 33 33 34 34 34 35 35 35 35 34 34 34 34 33 32 33 33 34 33 32 33 33 33 33 33 33 33 33 33 33 32 32 32 32 32 31 32 32 31 30 28 28 26 27 28 29 29 30 28 28 26 26 27 28 28 28 29 30 30 30 30 30 29 29 29 29 29 30 30 30 30 30 30 30 30 30 30 30 30 30 30 30
32 32 31 31 33 33 34 34 35 34 34 34 34 34 34 34 33 33 34 34 34 33 31 30 32 32 32 32 33 33 33 33 32 32 32 32 32 31 31 30 29 29 30 30 29 29 28 28 29 29 29 28 27 27 27 30 29 29 29 30 30 30 30 30 29 30 30 30 30 30 30 30 30 30 30 30 30 30 30 30 30 30 30 30 30
33 33 33 32 32 34 34 34 34 34 34 34 34 34 34 34 33 33 33 33 31 29 29 29 30 32 32 32 33 32 32 32 32 32 32 32 31 30 29 29 29 29 29 29 29 29 29 29 30 30 29 30 30 28 29 29 30 30 30 30 29 30 30 29 29 29 30 30 30 30 30 30 30 30 30 31 31 30 30 30 30 30 30 30 30
33 33 33 33 33 33 34 34 34 34 33 34 33 33 33 33 33 33 33 32 30 31 29 29 30 30 31 31 32 32 32 32 32 32 31 31 31 30 30 29 29 29 29 29 29 29 29 29 29 30 30 30 30 30 29 30 30 30 30 30 30 29 29 29 29 29 29 29 30 30 30 30 30 31 31 30 30 30 30 30 30 30 30 30 30
34 34 33 33 33 33 33 33 34 32 34 34 34 34 33 33 32 32 32 31 30 29 29 28 29 28 28 30 33 31 31 32 32 31 31 30 30 30 30 30 29 30 29 29 29 28 29 29 29 30 30 30 31 31 30 30 30 29 29 29 28 28 29 29 29 30 30 29 29 30 30 30 30 31 31 30 30 30 30 30 30 30 30 31 30
36 34 33 33 33 33 34 33 33 34 33 33 33 33 32 32 31 32 31 30 29 29 28 28 27 27 29 30 30 32 30 29 28 28 28 29 30 30 30 30 30 29 29 29 28 28 29 29 28 29 29 30 29 30 30 29 29 28 28 27 27 27 27 27 28 29 29 29 29 29 30 30 30 31 31 31 30 30 30 31 31 31 30 30 31
37 37 34 33 33 33 34 33 34 34 33 33 33 33 32 31 31 31 31 30 30 28 29 28 27 28 29 29 29 30 29 29 28 28 28 29 29 30 30 29 28 28 28 28 28 28 28 29 28 28 28 28 29 30 31 28 27 27 26 26 27 26 26 27 27 28 28 29 29 29 30 30 30 31 31 31 31 31 31 31 31 31 31 31 31
38 38 35 34 34 35 35 34 34 34 33 33 32 32 32 31 31 31 30 30 30 29 29 27 27 29 29 30 30 31 31 30 29 29 29 29 29 29 28 28 27 28 28 27 27 28 28 26 24 22 23 23 26 26 28 27 26 26 26 26 26 26 26 26 27 27 28 28 29 29 30 30 30 30 30 31 31 31 31 31 31 31 31 31 31
38 37 37 35 34 36 35 34 34 33 33 32 32 32 31 31 30 30 30 30 29 28 28 29 29 30 30 31 31 31 29 29 29 29 29 29 29 28 27 28 28 28 27 27 28 25 24 24 22 22 21 23 24 25 26 25 26 26 26 25 25 25 25 25 26 27 27 28 29 29 30 30 30 31 31 31 31 31 31 31 31 31 31 32 32
37 37 36 35 36 36 35 35 34 33 32 32 31 31 30 29 27 26 25 29 30 29 29 29 30 30 31 31 31 30 30 29 29 29 29 29 28 27 27 25 25 27 27 27 25 24 23 24 23 21 22 23 24 25 25 26 26 25 25 24 24 24 25 25 26 26 27 28 28 29 29 30 30 31 31 31 31 31 31 31 31 31 32 32 32
36 35 35 34 35 35 35 35 34 33 32 31 31 30 30 30 29 27 26 27 27 30 30 30 30 30 30 30 31 30 29 29 28 29 29 28 28 26 25 25 26 26 26 25 24 22 22 23 23 22 22 23 25 26 25 25 25 24 24 24 24 25 25 25 25 26 27 27 28 28 29 30 31 31 31 31 32 31 31 31 31 32 32 32 32
37 36 36 35 35 35 34 34 33 32 31 31 31 31 30 29 28 27 27 28 28 28 30 30 30 30 30 30 30 30 29 28 28 28 29 28 27 26 25 24 24 25 25 25 24 23 22 22 24 22 23 24 25 25 25 25 24 24 25 24 24 24 25 25 26 26 27 27 27 28 29 30 30 31 31 32 32 31 31 31 31 32 32 32 32
36 36 35 35 35 34 34 34 33 33 33 31 31 31 31 30 30 30 31 31 30 30 31 31 31 31 30 30 30 29 29 29 29 28 27 27 26 25 23 23 23 24 24 24 23 23 23 23 25 24 24 24 24 25 25 25 25 26 26 25 25 25 26 26 26 26 26 26 27 28 29 30 31 31 32 31 31 31 31 32 32 32 32 32 32
36 36 35 35 35 35 35 34 34 34 34 33 33 32 32 32 32 31 31 32 31 31 31 31 31 30 30 30 29 29 29 28 28 28 27 27 26 25 24 24 23 23 23 24 23 23 23 23 23 23 23 24 25 25 25 25 25 25 26 26 26 26 25 25 25 25 25 26 27 28 29 30 31 31 31 31 31 31 31 31 32 32 32 32 32
34 34 35 35 35 35 35 34 34 33 33 33 33 32 32 32 32 32 31 31 31 31 31 31 31 30 30 29 29 29 28 28 28 27 27 27 26 25 25 24 24 23 23 23 23 23 23 23 23 23 24 25 24 24 24 25 25 25 25 26 26 25 25 25 25 25 25 26 27 28 30 31 31 31 31 31 31 31 31 31 31 32 32 32 32
33 33 33 33 33 33 33 33 33 33 33 32 32 32 31 31 31 31 31 31 31 31 31 30 29 29 29 28 28 28 28 28 28 28 27 27 27 26 26 26 26 25 24 23 22 22 22 23 25 25 25 25 24 24 25 25 25 25 25 25 25 25 24 24 24 25 25 25 26 28 30 31 31 31 31 31 31 31 31 32 32 32 32 32 32
30 30 31 32 32 32 33 33 32 32 32 32 31 30 30 30 30 30 30 29 29 28 28 28 28 28 28 28 28 28 28 28 28 28 27 27 26 26 26 27 27 25 23 23 23 24 24 25 25 26 26 26 25 26 26 26 25 25 25 25 25 24 24 24 24 24 24 24 25 27 29 31 31 31 31 31 31 31 31 31 32 32 32 32 32
29 29 29 29 29 30 30 31 30 30 30 30 29 29 28 28 28 28 28 27 27 27 27 27 27 27 27 28 28 28 28 28 28 28 27 27 27 27 27 27 26 25 24 24 24 24 25 25 26 26 26 26 27 26 26 25 25 25 25 24 24 24 24 24 23 23 24 24 26 28 30 30 30 30 31 31 31 31 31 31 32 32 32 32 32